Terminal Aerodrome Forecast
Issued by NWS Omaha/Valley, NE

Home | Current Version | Previous Version | Text Only | Print | Product List | Glossary On
Versions: 1 2 3 4 5 6 7 8 9 10 11 12 13 14 15 16 17 18 19 20 21 22 23 24 25 26 27 28 29 30 31 32 33 34 35 36 37 38 39 40 41 42 43 44 45 46 47 48 49 50
000
FTUS43 KOAX 300520
TAFOMA
TAF
KOMA 300520Z 3006/3106 29005KT P6SM SCT120
     FM300800 33004KT 4SM BR SCT012
     FM301000 30004KT 3SM BR BKN012
      TEMPO 3011/3014 1SM BR OVC008
     FM301600 31008KT P6SM SCT030
     FM302300 16006KT P6SM SKC=

USA.gov is the U.S. government's official web portal to all federal, state and local government web resources and services.